| time (UTC) | temp F | wind direction | speed MPH | gust MPH | rain 1hr in | rain 24hr in | rain mn in | humidity % | barometer mb |
| 20260503213539 | 67 | 254 | 13.0 | 16.0 | 0.00 | 0.00 | 0.00 | 45 | 1035.0 |
| 20260503212036 | 67 | 180 | 6.0 | 12.0 | 0.00 | 0.00 | 0.00 | 46 | 1035.0 |
| 20260503210531 | 66 | 184 | 6.0 | 21.0 | 0.00 | 0.00 | 0.00 | 46 | 1035.4 |
| 20260503205026 | 66 | 201 | 6.0 | 15.0 | 0.00 | 0.00 | 0.00 | 45 | 1035.6 |
| 20260503203523 | 65 | 203 | 4.0 | 18.0 | 0.00 | 0.00 | 0.00 | 45 | 1036.3 |
| 20260503202021 | 64 | 200 | 3.0 | 12.0 | 0.00 | 0.00 | 0.00 | 51 | 1036.3 |
| 20260503200518 | 64 | 263 | 4.0 | 20.0 | 0.00 | 0.00 | 0.00 | 52 | 1036.8 |
| 20260503195015 | 62 | 180 | 4.0 | 22.0 | 0.00 | 0.00 | 0.00 | 53 | 1037.0 |
| 20260503193514 | 62 | 249 | 7.0 | 10.0 | 0.00 | 0.00 | 0.00 | 53 | 1037.4 |
| 20260503192014 | 62 | 144 | 6.0 | 10.0 | 0.00 | 0.00 | 0.00 | 52 | 1037.3 |
| 20260503190510 | 62 | 194 | 2.0 | 10.0 | 0.00 | 0.00 | 0.00 | 50 | 1037.4 |
| 20260503185009 | 61 | 228 | 2.0 | 11.0 | 0.00 | 0.00 | 0.00 | 51 | 1037.5 |
| 20260503183504 | 60 | 193 | 5.0 | 20.0 | 0.00 | 0.00 | 0.00 | 52 | 1037.4 |
| 20260503182003 | 60 | 205 | 3.0 | 11.0 | 0.00 | 0.00 | 0.00 | 54 | 1037.7 |
| 20260503180500 | 59 | 199 | 2.0 | 19.0 | 0.00 | 0.00 | 0.00 | 54 | 1038.1 |
| 20260503174956 | 59 | 198 | 3.0 | 11.0 | 0.00 | 0.00 | 0.00 | 56 | 1038.3 |
| 20260503173451 | 58 | 214 | 5.0 | 12.0 | 0.00 | 0.00 | 0.00 | 60 | 1038.8 |
| 20260503171948 | 57 | 232 | 15.0 | 15.0 | 0.00 | 0.00 | 0.00 | 62 | 1039.6 |
| 20260503170444 | 55 | 195 | 5.0 | 11.0 | 0.00 | 0.00 | 0.00 | 67 | 1040.0 |
| 20260503150420 | 55 | 226 | 13.0 | 13.0 | 0.00 | 0.00 | 0.00 | 60 | 1041.2 |
| 20260503130356 | 51 | 206 | 3.0 | 15.0 | 0.00 | 0.00 | 0.00 | 60 | 1042.0 |
| 20260503110337 | 48 | 217 | 8.0 | 9.0 | 0.00 | 0.00 | 0.00 | 60 | 1041.8 |
| 20260503090320 | 49 | 78 | 1.0 | 10.0 | 0.00 | 0.00 | 0.00 | 55 | 1042.7 |
| 20260503080311 | 47 | 222 | 3.0 | 6.0 | 0.00 | 0.00 | 0.00 | 58 | 1042.8 |
| 20260503071758 | 45 | 210 | 2.0 | 5.0 | 0.00 | 0.00 | 0.00 | 63 | 1042.9 |
| 20260503070255 | 44 | 169 | 0.0 | 2.0 | 0.00 | 0.00 | 0.00 | 64 | 1042.9 |
| 20260503060250 | 43 | 180 | 0.0 | 2.0 | 0.00 | 0.00 | 0.00 | 67 | 1043.4 |
| 20260503054749 | 42 | 120 | 0.0 | 0.0 | 0.00 | 0.00 | 0.00 | 71 | 1043.7 |
| 20260503053248 | 42 | 106 | 0.0 | 0.0 | 0.00 | 0.00 | 0.00 | 71 | 1044.0 |
| 20260503051748 | 43 | 106 | 0.0 | 1.0 | 0.00 | 0.00 | 0.00 | 69 | 1043.8 |
| 20260503050244 | 43 | 105 | 0.0 | 2.0 | 0.00 | 0.00 | 0.00 | 69 | 1044.2 |
| 20260503044741 | 42 | 165 | 0.0 | 0.0 | 0.00 | 0.00 | 0.00 | 71 | 1044.2 |
| 20260503043239 | 41 | 106 | 0.0 | 0.0 | 0.00 | 0.00 | 0.00 | 73 | 1044.1 |
| 20260503041739 | 42 | 165 | 0.0 | 0.0 | 0.00 | 0.00 | 0.00 | 72 | 1044.1 |
| 20260503040238 | 43 | 165 | 0.0 | 0.0 | 0.00 | 0.00 | 0.00 | 71 | 1044.3 |
| 20260503034735 | 42 | 168 | 0.0 | 0.0 | 0.00 | 0.00 | 0.00 | 70 | 1044.2 |
| 20260503033232 | 43 | 168 | 0.0 | 0.0 | 0.00 | 0.00 | 0.00 | 68 | 1044.6 |
| 20260503031731 | 44 | 111 | 0.0 | 1.0 | 0.00 | 0.00 | 0.00 | 68 | 1044.6 |
| 20260503030227 | 45 | 154 | 0.0 | 1.0 | 0.00 | 0.00 | 0.00 | 66 | 1044.8 |
| 20260503024724 | 46 | 187 | 0.0 | 0.0 | 0.00 | 0.00 | 0.00 | 65 | 1044.6 |
| 20260503023220 | 46 | 173 | 0.0 | 1.0 | 0.00 | 0.00 | 0.00 | 64 | 1044.7 |
| 20260503021719 | 46 | 240 | 0.0 | 1.0 | 0.00 | 0.00 | 0.00 | 66 | 1044.7 |
| 20260503020216 | 45 | 180 | 0.0 | 0.0 | 0.00 | 0.00 | 0.00 | 67 | 1044.7 |
| 20260503014717 | 45 | 180 | 0.0 | 0.0 | 0.00 | 0.00 | 0.00 | 64 | 1044.7 |
| 20260503013216 | 47 | 180 | 0.0 | 0.0 | 0.00 | 0.00 | 0.00 | 60 | 1044.4 |
| 20260503011711 | 49 | 180 | 0.0 | 0.0 | 0.00 | 0.00 | 0.00 | 56 | 1044.3 |
| 20260503010208 | 50 | 151 | 0.0 | 1.0 | 0.00 | 0.00 | 0.00 | 53 | 1044.3 |
| 20260503004704 | 51 | 187 | 0.0 | 1.0 | 0.00 | 0.00 | 0.00 | 50 | 1044.3 |
| 20260503003202 | 53 | 173 | 1.0 | 3.0 | 0.00 | 0.00 | 0.00 | 47 | 1044.5 |
| 20260503001657 | 54 | 220 | 2.0 | 5.0 | 0.00 | 0.00 | 0.00 | 46 | 1044.5 |
| 20260503000155 | 54 | 187 | 2.0 | 5.0 | 0.00 | 0.00 | 0.00 | 44 | 1044.6 |
| 20260502234651 | 55 | 270 | 1.0 | 7.0 | 0.00 | 0.00 | 0.00 | 42 | 1044.7 |
| 20260502233147 | 55 | 220 | 2.0 | 7.0 | 0.00 | 0.00 | 0.00 | 41 | 1044.7 |
| 20260502231643 | 56 | 223 | 5.0 | 5.0 | 0.00 | 0.00 | 0.00 | 40 | 1044.8 |
| 20260502230143 | 55 | 279 | 2.0 | 7.0 | 0.00 | 0.00 | 0.00 | 43 | 1045.0 |
| 20260502224644 | 56 | 225 | 3.0 | 6.0 | 0.00 | 0.00 | 0.00 | 41 | 1045.2 |
| 20260502223142 | 56 | 209 | 3.0 | 7.0 | 0.00 | 0.00 | 0.00 | 41 | 1045.1 |
| 20260502221637 | 55 | 274 | 2.0 | 6.0 | 0.00 | 0.00 | 0.00 | 41 | 1045.2 |
| 20260502220133 | 55 | 290 | 4.0 | 5.0 | 0.00 | 0.00 | 0.00 | 42 | 1045.5 |
| 20260502214631 | 55 | 337 | 4.0 | 7.0 | 0.00 | 0.00 | 0.00 | 40 | 1045.3 |